Location: Gorze? G�rny
(49.8500°N, 19.5000°E)
Time: 04:20:01
(UTC+00:00)

Cosmos 2228 Rocket - Pass Details

Date: 13 May 2021
Orbit: 618 x 651 km, 82.5° (Epoch: 20 June)

Event Time Altitude Azimuth Distance (km) Brightness Sun altitude
Exits shadow 20:51:34 16° 211° (SSW) 1,660 4.9 -17.6°
Maximum altitude 20:55:00 51° 284° (WNW) 796 3.8 -17.8°
Drops below altitude 10° 20:59:24 10° 1° (N) 2,034 6.7 -18.1°
Sets 21:01:44 0° 7° (N) 2,953 7.6 -18.3°
